FW3681 Weather Reports


Display with metric or nautical units.
time (UTC)temp
F
wind
direction
speed
MPH
gust
MPH
rain 1hr
in
rain 24hr
in
rain mn
in
humidity
%
barometer
mb
20260505023007 66 214 2.0 3.0 0.00 0.00 0.00 56 1015.4
20260505022903 66 176 2.0 3.0 0.00 0.00 0.00 56 1015.3
20260505022703 66 153 3.0 3.0 0.00 0.00 0.00 56 1015.3
20260505022505 66 218 0.0 3.0 0.00 0.00 0.00 56 1015.3
20260505022403 66 155 1.0 3.0 0.00 0.00 0.00 56 1015.3
20260505022304 66 200 0.0 3.0 0.00 0.00 0.00 56 1015.4
20260505022203 66 201 0.0 3.0 0.00 0.00 0.00 56 1015.4
20260505022102 66 250 0.0 3.0 0.00 0.00 0.00 55 1015.2
20260505022012 66 194 0.0 3.0 0.00 0.00 0.00 55 1015.2
20260505021904 66 234 0.0 2.0 0.00 0.00 0.00 55 1015.3
20260505021803 66 234 0.0 2.0 0.00 0.00 0.00 55 1015.2
20260505021506 66 234 0.0 3.0 0.00 0.00 0.00 56 1015.2
20260505021403 66 237 0.0 3.0 0.00 0.00 0.00 55 1015.3
20260505021203 66 253 0.0 3.0 0.00 0.00 0.00 55 1015.3
20260505021103 66 225 0.0 3.0 0.00 0.00 0.00 55 1015.2
20260505021009 67 225 0.0 3.0 0.00 0.00 0.00 55 1015.2
20260505020904 67 190 0.0 3.0 0.00 0.00 0.00 55 1015.2
20260505020803 67 169 0.0 3.0 0.00 0.00 0.00 55 1015.2
20260505020704 67 230 0.0 3.0 0.00 0.00 0.00 55 1015.2
20260505020603 67 217 0.0 3.0 0.00 0.00 0.00 54 1015.2
20260505020505 67 214 0.0 3.0 0.00 0.00 0.00 54 1015.2
20260505020403 67 221 0.0 3.0 0.00 0.00 0.00 54 1015.1
20260505020303 67 231 2.0 3.0 0.00 0.00 0.00 54 1015.1
20260505020103 67 235 0.0 3.0 0.00 0.00 0.00 53 1015.2
20260505020008 67 188 0.0 3.0 0.00 0.00 0.00 53 1015.2
20260505015901 67 164 2.0 3.0 0.00 0.00 0.00 54 1015.2
20260505015803 67 195 0.0 2.0 0.00 0.00 0.00 54 1015.1
20260505015703 67 212 0.0 2.0 0.00 0.00 0.00 54 1015.2
20260505015602 67 212 0.0 2.0 0.00 0.00 0.00 53 1015.1
20260505015505 67 218 0.0 2.0 0.00 0.00 0.00 53 1015.1
20260505015403 67 207 0.0 3.0 0.00 0.00 0.00 54 1015.1
20260505015303 67 207 0.0 3.0 0.00 0.00 0.00 53 1015.1
20260505015102 67 226 0.0 3.0 0.00 0.00 0.00 53 1015.1
20260505015010 67 212 0.0 3.0 0.00 0.00 0.00 53 1015.1
20260505014902 67 162 0.0 3.0 0.00 0.00 0.00 53 1015.2
20260505014802 67 198 2.0 3.0 0.00 0.00 0.00 54 1015.1
20260505014702 67 199 1.0 3.0 0.00 0.00 0.00 54 1015.1
20260505014602 67 214 1.0 3.0 0.00 0.00 0.00 54 1015.2
20260505014506 67 216 0.0 2.0 0.00 0.00 0.00 55 1015.2
20260505014403 67 251 0.0 2.0 0.00 0.00 0.00 54 1015.1
20260505014302 67 213 0.0 2.0 0.00 0.00 0.00 54 1015.1
20260505014102 67 207 2.0 3.0 0.00 0.00 0.00 53 1015.0
20260505014006 67 214 0.0 3.0 0.00 0.00 0.00 54 1015.0
20260505013802 67 219 2.0 3.0 0.00 0.00 0.00 53 1015.0
20260505013702 67 208 0.0 3.0 0.00 0.00 0.00 53 1014.9
20260505013602 67 200 0.0 3.0 0.00 0.00 0.00 53 1014.8
20260505013505 67 169 1.0 3.0 0.00 0.00 0.00 53 1014.9
20260505013402 67 192 2.0 3.0 0.00 0.00 0.00 53 1014.8
20260505013303 67 162 0.0 3.0 0.00 0.00 0.00 53 1014.7
20260505013102 67 219 0.0 3.0 0.00 0.00 0.00 53 1014.7
20260505013009 67 217 2.0 3.0 0.00 0.00 0.00 53 1014.7
20260505012902 67 206 0.0 3.0 0.00 0.00 0.00 53 1014.6
20260505012802 68 205 0.0 3.0 0.00 0.00 0.00 53 1014.7
20260505012702 68 181 0.0 3.0 0.00 0.00 0.00 53 1014.6
20260505012603 68 195 2.0 3.0 0.00 0.00 0.00 53 1014.7
20260505012505 67 165 3.0 3.0 0.00 0.00 0.00 53 1014.6
20260505012402 67 205 0.0 3.0 0.00 0.00 0.00 53 1014.6
20260505012202 67 174 2.0 3.0 0.00 0.00 0.00 53 1014.5
20260505012102 67 173 0.0 3.0 0.00 0.00 0.00 53 1014.5
20260505012008 67 176 0.0 2.0 0.00 0.00 0.00 53 1014.5
20260505011902 67 183 1.0 2.0 0.00 0.00 0.00 53 1014.5
20260505011803 67 188 2.0 2.0 0.00 0.00 0.00 53 1014.6
20260505011701 67 192 2.0 2.0 0.00 0.00 0.00 53 1014.6
20260505011602 67 211 0.0 3.0 0.00 0.00 0.00 53 1014.5
20260505011506 67 197 0.0 3.0 0.00 0.00 0.00 53 1014.5
20260505011404 67 200 1.0 3.0 0.00 0.00 0.00 53 1014.6
20260505011302 67 183 0.0 3.0 0.00 0.00 0.00 52 1014.5
20260505011202 67 213 0.0 3.0 0.00 0.00 0.00 52 1014.4
20260505011102 67 215 0.0 3.0 0.00 0.00 0.00 52 1014.4
20260505011007 67 193 0.0 3.0 0.00 0.00 0.00 52 1014.4
20260505010903 67 241 1.0 3.0 0.00 0.00 0.00 52 1014.4
20260505010802 67 218 0.0 3.0 0.00 0.00 0.00 52 1014.3
20260505010602 68 188 1.0 3.0 0.00 0.00 0.00 52 1014.4
20260505010505 68 179 0.0 3.0 0.00 0.00 0.00 52 1014.4
20260505010302 68 200 0.0 3.0 0.00 0.00 0.00 51 1014.3
20260505010202 68 217 0.0 3.0 0.00 0.00 0.00 50 1014.3
20260505010103 68 179 2.0 3.0 0.00 0.00 0.00 49 1014.3
20260505010013 68 232 0.0 3.0 0.00 0.00 0.00 47 1014.3
20260505005902 69 235 2.0 3.0 0.00 0.00 0.00 45 1014.2
20260505005802 69 238 2.0 2.0 0.00 0.00 0.00 45 1014.2
20260505005701 69 238 0.0 2.0 0.00 0.00 0.00 44 1014.2
20260505005506 69 250 1.0 2.0 0.00 0.00 0.00 43 1014.2
20260505005403 69 231 0.0 2.0 0.00 0.00 0.00 44 1014.0
20260505005303 69 227 0.0 2.0 0.00 0.00 0.00 45 1013.9
20260505005202 69 250 0.0 0.0 0.00 0.00 0.00 44 1013.9
20260505005102 69 323 0.0 0.0 0.00 0.00 0.00 44 1013.9
20260505005006 69 323 0.0 0.0 0.00 0.00 0.00 44 1013.9
20260505004902 69 323 0.0 0.0 0.00 0.00 0.00 44 1013.9
20260505004802 69 323 0.0 0.0 0.00 0.00 0.00 44 1013.9
20260505004702 69 323 0.0 0.0 0.00 0.00 0.00 44 1014.0
20260505004602 69 323 0.0 0.0 0.00 0.00 0.00 44 1014.0
20260505004506 69 323 0.0 0.0 0.00 0.00 0.00 44 1014.1
20260505004403 69 323 0.0 0.0 0.00 0.00 0.00 44 1014.1
20260505004302 70 323 0.0 0.0 0.00 0.00 0.00 44 1014.2
20260505004202 70 323 0.0 0.0 0.00 0.00 0.00 44 1014.1
20260505004102 70 323 0.0 0.0 0.00 0.00 0.00 43 1014.2
20260505004011 70 323 0.0 0.0 0.00 0.00 0.00 43 1014.2
20260505003801 70 323 0.0 0.0 0.00 0.00 0.00 43 1014.0
20260505003702 70 323 0.0 0.0 0.00 0.00 0.00 43 1014.0
20260505003603 70 323 0.0 0.0 0.00 0.00 0.00 43 1014.0
20260505003505 70 323 0.0 0.0 0.00 0.00 0.00 43 1014.0
20260505003402 70 323 0.0 0.0 0.00 0.00 0.00 43 1014.0
20260505003301 70 323 0.0 0.0 0.00 0.00 0.00 43 1014.0
20260505003201 70 323 0.0 0.0 0.00 0.00 0.00 43 1014.0
20260505003102 71 323 0.0 0.0 0.00 0.00 0.00 42 1014.0
20260505003012 71 323 0.0 0.0 0.00 0.00 0.00 42 1014.0
20260505002902 71 323 0.0 0.0 0.00 0.00 0.00 42 1014.0
20260505002803 71 323 0.0 0.0 0.00 0.00 0.00 42 1014.0
20260505002701 71 323 0.0 0.0 0.00 0.00 0.00 42 1014.0
20260505002602 71 323 0.0 0.0 0.00 0.00 0.00 42 1014.0
20260505002403 71 323 0.0 0.0 0.00 0.00 0.00 44 1014.0
20260505002304 71 323 0.0 0.0 0.00 0.00 0.00 42 1014.0
20260505002203 71 323 0.0 0.0 0.00 0.00 0.00 42 1013.9
20260505002102 71 323 0.0 0.0 0.00 0.00 0.00 41 1013.9
20260505002012 71 323 0.0 0.0 0.00 0.00 0.00 41 1013.9
20260505001902 71 323 0.0 0.0 0.00 0.00 0.00 41 1013.9
20260505001801 72 323 0.0 0.0 0.00 0.00 0.00 41 1013.9
20260505001701 72 323 0.0 0.0 0.00 0.00 0.00 41 1014.0
20260505001603 72 323 0.0 0.0 0.00 0.00 0.00 40 1014.0
20260505001505 72 323 0.0 0.0 0.00 0.00 0.00 40 1014.0
20260505001402 72 323 0.0 0.0 0.00 0.00 0.00 40 1013.9
20260505001301 72 323 0.0 0.0 0.00 0.00 0.00 40 1013.9
20260505001202 72 323 0.0 0.0 0.00 0.00 0.00 40 1013.8
20260505001103 72 323 0.0 0.0 0.00 0.00 0.00 40 1013.8
20260505001013 72 323 0.0 0.0 0.00 0.00 0.00 40 1013.8
20260505000902 73 323 0.0 2.0 0.00 0.00 0.00 39 1013.9
20260505000802 73 323 0.0 2.0 0.00 0.00 0.00 39 1013.8
20260505000701 73 323 0.0 2.0 0.00 0.00 0.00 39 1013.9
20260505000602 73 323 0.0 2.0 0.00 0.00 0.00 38 1013.9
20260505000505 73 323 0.0 2.0 0.00 0.00 0.00 39 1013.9
20260505000405 73 323 0.0 2.0 0.00 0.00 0.00 38 1013.9
20260505000301 73 323 0.0 2.0 0.00 0.00 0.00 38 1013.9
20260504235902 73 344 2.0 2.0 0.00 0.00 0.00 37 1013.9
20260504235802 74 333 0.0 0.0 0.00 0.00 0.00 37 1013.9
20260504235702 74 333 0.0 0.0 0.00 0.00 0.00 37 1013.9
20260504235601 74 333 0.0 0.0 0.00 0.00 0.00 37 1013.9
20260504235505 74 333 0.0 2.0 0.00 0.00 0.00 37 1013.9
20260504235402 74 333 0.0 2.0 0.00 0.00 0.00 37 1013.9
20260504235304 74 331 0.0 2.0 0.00 0.00 0.00 37 1013.8
20260504235202 74 331 0.0 2.0 0.00 0.00 0.00 37 1013.8
20260504235102 74 323 0.0 3.0 0.00 0.00 0.00 36 1013.9
20260504235008 74 323 0.0 3.0 0.00 0.00 0.00 36 1013.9
20260504234902 74 323 0.0 3.0 0.00 0.00 0.00 35 1013.9
20260504234802 74 323 0.0 3.0 0.00 0.00 0.00 35 1013.8
20260504234702 75 323 0.0 3.0 0.00 0.00 0.00 35 1013.9
20260504234602 75 323 0.0 3.0 0.00 0.00 0.00 35 1013.9
20260504234506 75 311 0.0 3.0 0.00 0.00 0.00 34 1013.8
20260504234401 75 311 0.0 3.0 0.00 0.00 0.00 34 1013.9
20260504234301 75 302 0.0 3.0 0.00 0.00 0.00 34 1013.9
20260504234202 75 1 2.0 3.0 0.00 0.00 0.00 34 1013.9
20260504234101 75 329 0.0 3.0 0.00 0.00 0.00 34 1013.9
20260504234013 75 314 0.0 3.0 0.00 0.00 0.00 34 1013.9
20260504233802 75 358 2.0 3.0 0.00 0.00 0.00 34 1014.0
20260504233602 75 314 1.0 2.0 0.00 0.00 0.00 33 1013.9
20260504233505 75 282 1.0 2.0 0.00 0.00 0.00 33 1014.0
20260504233401 75 360 2.0 2.0 0.00 0.00 0.00 33 1014.0
20260504233303 75 324 2.0 2.0 0.00 0.00 0.00 32 1013.9
20260504233202 75 257 0.0 2.0 0.00 0.00 0.00 34 1013.9
20260504233102 76 279 2.0 2.0 0.00 0.00 0.00 32 1013.9
20260504233005 75 330 1.0 2.0 0.00 0.00 0.00 33 1013.9
20260504232902 76 316 0.0 2.0 0.00 0.00 0.00 33 1013.9
20260504232801 76 314 1.0 2.0 0.00 0.00 0.00 32 1013.9
20260504232702 76 312 1.0 3.0 0.00 0.00 0.00 34 1013.8
20260504232602 76 319 0.0 4.0 0.00 0.00 0.00 33 1013.8
20260504232506 76 8 1.0 4.0 0.00 0.00 0.00 32 1013.8
20260504232402 76 256 0.0 4.0 0.00 0.00 0.00 33 1013.7
20260504232303 76 288 1.0 4.0 0.00 0.00 0.00 32 1013.7
20260504232201 76 300 1.0 4.0 0.00 0.00 0.00 32 1013.6
20260504232102 76 310 1.0 4.0 0.00 0.00 0.00 32 1013.6
20260504232005 76 294 1.0 4.0 0.00 0.00 0.00 32 1013.6
20260504231902 76 311 1.0 4.0 0.00 0.00 0.00 31 1013.6
20260504231803 76 4 2.0 4.0 0.00 0.00 0.00 31 1013.7
20260504231701 76 294 0.0 3.0 0.00 0.00 0.00 31 1013.6
20260504231602 76 323 1.0 3.0 0.00 0.00 0.00 31 1013.6
20260504231302 76 338 0.0 5.0 0.00 0.00 0.00 30 1013.7
20260504231202 76 10 1.0 5.0 0.00 0.00 0.00 31 1013.7
20260504231102 76 323 0.0 5.0 0.00 0.00 0.00 31 1013.7
20260504231005 76 340 2.0 5.0 0.00 0.00 0.00 31 1013.7
20260504230903 76 10 3.0 5.0 0.00 0.00 0.00 31 1013.7
20260504230602 77 333 1.0 5.0 0.00 0.00 0.00 30 1013.8
20260504230505 77 360 4.0 5.0 0.00 0.00 0.00 32 1013.8
20260504230402 77 295 0.0 4.0 0.00 0.00 0.00 32 1013.8
20260504230201 77 276 3.0 4.0 0.00 0.00 0.00 32 1013.8
20260504230007 77 287 1.0 4.0 0.00 0.00 0.00 31 1013.8
20260504225903 77 294 1.0 3.0 0.00 0.00 0.00 31 1013.8
20260504225802 77 78 0.0 3.0 0.00 0.00 0.00 32 1013.8
20260504225702 77 300 0.0 3.0 0.00 0.00 0.00 32 1013.8
20260504225603 77 300 0.0 3.0 0.00 0.00 0.00 32 1013.8
20260504225506 77 331 0.0 3.0 0.00 0.00 0.00 32 1013.8
20260504225402 77 333 0.0 3.0 0.00 0.00 0.00 32 1013.8
20260504225202 77 284 2.0 3.0 0.00 0.00 0.00 33 1013.8
20260504225102 77 307 3.0 3.0 0.00 0.00 0.00 33 1013.8
20260504225006 77 312 2.0 3.0 0.00 0.00 0.00 32 1013.7
20260504224903 77 349 3.0 3.0 0.00 0.00 0.00 33 1013.8
20260504224802 77 287 2.0 3.0 0.00 0.00 0.00 32 1013.8
20260504224506 77 319 2.0 3.0 0.00 0.00 0.00 32 1013.8
20260504224401 77 267 3.0 3.0 0.00 0.00 0.00 33 1013.9
20260504224202 77 337 0.0 3.0 0.00 0.00 0.00 34 1013.9
20260504224102 77 314 0.0 3.0 0.00 0.00 0.00 33 1013.9
20260504224006 77 307 2.0 4.0 0.00 0.00 0.00 33 1013.9
20260504223903 77 302 0.0 4.0 0.00 0.00 0.00 33 1014.0
20260504223702 77 254 0.0 4.0 0.00 0.00 0.00 34 1013.9
20260504223603 77 311 2.0 4.0 0.00 0.00 0.00 33 1014.0
20260504223504 77 265 1.0 4.0 0.00 0.00 0.00 34 1014.0
20260504223402 77 279 2.0 4.0 0.00 0.00 0.00 34 1014.0
20260504223302 77 289 2.0 4.0 0.00 0.00 0.00 33 1013.9
20260504223201 77 120 0.0 4.0 0.00 0.00 0.00 33 1014.0
20260504223102 77 1 1.0 4.0 0.00 0.00 0.00 33 1014.0
20260504223006 77 335 0.0 3.0 0.00 0.00 0.00 32 1014.0
20260504222902 77 4 1.0 3.0 0.00 0.00 0.00 33 1013.9
20260504222802 77 309 0.0 3.0 0.00 0.00 0.00 32 1014.0
20260504222603 77 326 2.0 3.0 0.00 0.00 0.00 33 1014.0
20260504222505 77 288 0.0 3.0 0.00 0.00 0.00 34 1014.1
20260504222402 77 274 2.0 3.0 0.00 0.00 0.00 34 1014.0
20260504222304 77 314 2.0 3.0 0.00 0.00 0.00 33 1014.1
20260504222202 77 278 3.0 3.0 0.00 0.00 0.00 32 1014.1
20260504222102 77 314 0.0 3.0 0.00 0.00 0.00 32 1014.1
20260504222007 77 314 0.0 3.0 0.00 0.00 0.00 33 1014.1
20260504221901 77 359 2.0 3.0 0.00 0.00 0.00 32 1014.2
20260504221801 77 326 2.0 3.0 0.00 0.00 0.00 33 1014.2
20260504221702 77 307 2.0 4.0 0.00 0.00 0.00 32 1014.2
20260504221601 77 302 0.0 4.0 0.00 0.00 0.00 33 1014.1
20260504221506 77 304 1.0 4.0 0.00 0.00 0.00 33 1014.1
20260504221403 77 319 2.0 4.0 0.00 0.00 0.00 34 1014.1
20260504221201 77 269 0.0 4.0 0.00 0.00 0.00 32 1014.0
20260504221101 78 338 3.0 4.0 0.00 0.00 0.00 32 1014.1
20260504220902 78 328 1.0 5.0 0.00 0.00 0.00 31 1014.1
20260504220802 78 6 2.0 5.0 0.00 0.00 0.00 32 1014.1
20260504220702 78 15 4.0 5.0 0.00 0.00 0.00 32 1014.1
20260504220505 78 146 2.0 5.0 0.00 0.00 0.00 33 1014.1
20260504220402 78 266 2.0 5.0 0.00 0.00 0.00 32 1014.2
20260504220203 78 300 1.0 5.0 0.00 0.00 0.00 32 1014.2
20260504220008 78 309 2.0 4.0 0.00 0.00 0.00 32 1014.1
20260504215902 78 273 4.0 4.0 0.00 0.00 0.00 32 1014.2
20260504215803 78 355 3.0 4.0 0.00 0.00 0.00 32 1014.2
20260504215702 78 321 1.0 4.0 0.00 0.00 0.00 32 1014.2
20260504215602 78 328 2.0 4.0 0.00 0.00 0.00 32 1014.1
20260504215505 78 186 2.0 4.0 0.00 0.00 0.00 32 1014.1
20260504215401 78 328 0.0 4.0 0.00 0.00 0.00 32 1014.1
20260504215304 78 287 2.0 4.0 0.00 0.00 0.00 32 1014.2
20260504215203 78 328 0.0 3.0 0.00 0.00 0.00 31 1014.1
20260504215102 78 248 0.0 3.0 0.00 0.00 0.00 31 1014.1
20260504215005 78 265 1.0 3.0 0.00 0.00 0.00 31 1014.1
20260504214901 78 306 2.0 4.0 0.00 0.00 0.00 31 1014.2
20260504214802 78 242 2.0 4.0 0.00 0.00 0.00 31 1014.1
20260504214701 78 261 0.0 4.0 0.00 0.00 0.00 30 1014.1
20260504214601 78 288 3.0 4.0 0.00 0.00 0.00 29 1014.1
20260504214505 78 333 2.0 4.0 0.00 0.00 0.00 29 1014.1
20260504214404 78 340 1.0 4.0 0.00 0.00 0.00 29 1014.0
20260504214302 78 244 0.0 4.0 0.00 0.00 0.00 28 1014.1
20260504214202 78 237 0.0 5.0 0.00 0.00 0.00 31 1014.1
20260504214102 79 255 3.0 5.0 0.00 0.00 0.00 31 1014.0
20260504214007 79 259 2.0 5.0 0.00 0.00 0.00 30 1014.0
20260504213903 79 286 2.0 5.0 0.00 0.00 0.00 29 1014.0
20260504213702 79 200 0.0 5.0 0.00 0.00 0.00 30 1014.0
20260504213601 79 139 1.0 5.0 0.00 0.00 0.00 31 1014.0
20260504213505 79 73 0.0 5.0 0.00 0.00 0.00 31 1014.0
20260504213402 79 193 0.0 5.0 0.00 0.00 0.00 32 1014.0
20260504213302 79 214 0.0 3.0 0.00 0.00 0.00 33 1014.0
20260504213202 79 251 0.0 4.0 0.00 0.00 0.00 32 1014.0
20260504213102 79 245 2.0 4.0 0.00 0.00 0.00 31 1013.9
20260504213006 79 169 0.0 4.0 0.00 0.00 0.00 31 1013.9
20260504212901 79 141 0.0 4.0 0.00 0.00 0.00 31 1013.9
20260504212802 79 147 0.0 4.0 0.00 0.00 0.00 31 1014.0
20260504212701 79 174 1.0 4.0 0.00 0.00 0.00 31 1014.0
20260504212602 79 188 0.0 4.0 0.00 0.00 0.00 31 1014.0
20260504212505 79 233 0.0 4.0 0.00 0.00 0.00 29 1013.9
20260504212401 79 335 2.0 4.0 0.00 0.00 0.00 30 1013.9
20260504212303 79 309 1.0 4.0 0.00 0.00 0.00 30 1014.0
20260504212202 79 127 1.0 4.0 0.00 0.00 0.00 30 1014.0
20260504212102 79 24 1.0 3.0 0.00 0.00 0.00 32 1014.0
20260504212007 80 239 3.0 3.0 0.00 0.00 0.00 30 1014.0
20260504211902 80 196 1.0 3.0 0.00 0.00 0.00 31 1013.9
20260504211802 80 359 0.0 3.0 0.00 0.00 0.00 31 1013.9
20260504211702 80 300 2.0 3.0 0.00 0.00 0.00 31 1013.9
20260504211602 80 216 1.0 3.0 0.00 0.00 0.00 31 1013.9
20260504211505 79 356 0.0 4.0 0.00 0.00 0.00 30 1013.9
20260504211302 79 309 1.0 4.0 0.00 0.00 0.00 29 1014.0
20260504211202 80 205 0.0 4.0 0.00 0.00 0.00 30 1014.0
20260504211102 80 341 2.0 4.0 0.00 0.00 0.00 29 1014.0
20260504211005 80 233 2.0 4.0 0.00 0.00 0.00 29 1014.0
20260504210902 80 305 2.0 4.0 0.00 0.00 0.00 30 1014.1
20260504210703 80 328 0.0 4.0 0.00 0.00 0.00 30 1014.0
20260504210602 80 345 1.0 4.0 0.00 0.00 0.00 30 1014.1
20260504210401 80 198 0.0 4.0 0.00 0.00 0.00 28 1014.0
20260504210302 80 262 1.0 4.0 0.00 0.00 0.00 29 1014.0
20260504210202 79 291 3.0 4.0 0.00 0.00 0.00 31 1014.0
20260504210006 79 167 0.0 4.0 0.00 0.00 0.00 32 1013.9
20260504205801 79 247 2.0 5.0 0.00 0.00 0.00 31 1014.0
20260504205701 79 241 1.0 5.0 0.00 0.00 0.00 33 1013.9
20260504205601 79 266 3.0 5.0 0.00 0.00 0.00 31 1014.1
20260504205505 79 212 0.0 5.0 0.00 0.00 0.00 31 1014.1
20260504205400 79 121 0.0 5.0 0.00 0.00 0.00 30 1014.1
20260504205201 79 210 2.0 7.0 0.00 0.00 0.00 32 1014.0
20260504205005 78 345 0.0 7.0 0.00 0.00 0.00 31 1014.1
20260504204901 78 264 3.0 7.0 0.00 0.00 0.00 32 1014.2
20260504204801 79 273 4.0 7.0 0.00 0.00 0.00 31 1014.2
20260504204700 79 295 3.0 7.0 0.00 0.00 0.00 30 1014.2
20260504204601 79 310 2.0 7.0 0.00 0.00 0.00 30 1014.3
20260504204505 79 333 3.0 7.0 0.00 0.00 0.00 30 1014.3
20260504204401 79 359 4.0 7.0 0.00 0.00 0.00 31 1014.3
20260504204301 79 336 3.0 5.0 0.00 0.00 0.00 31 1014.2
20260504204101 79 5 5.0 5.0 0.00 0.00 0.00 32 1014.3
20260504203901 79 289 3.0 4.0 0.00 0.00 0.00 33 1014.3
20260504203601 79 233 3.0 4.0 0.00 0.00 0.00 31 1014.4
20260504203505 79 71 0.0 4.0 0.00 0.00 0.00 31 1014.4
20260504203401 79 150 0.0 4.0 0.00 0.00 0.00 29 1014.3
20260504203101 79 118 3.0 5.0 0.00 0.00 0.00 32 1014.5
20260504202900 80 355 0.0 6.0 0.00 0.00 0.00 32 1014.5
20260504202701 79 321 3.0 6.0 0.00 0.00 0.00 32 1014.6
20260504202601 79 188 2.0 6.0 0.00 0.00 0.00 34 1014.5
20260504202402 79 188 2.0 6.0 0.00 0.00 0.00 33 1014.5
20260504202300 79 130 0.0 6.0 0.00 0.00 0.00 34 1014.5
20260504202201 79 128 2.0 6.0 0.00 0.00 0.00 34 1014.6
20260504202101 79 287 3.0 6.0 0.00 0.00 0.00 32 1014.5
20260504201900 80 319 3.0 5.0 0.00 0.00 0.00 33 1014.6
20260504201803 80 255 2.0 5.0 0.00 0.00 0.00 33 1014.6
20260504201701 80 313 1.0 5.0 0.00 0.00 0.00 33 1014.5
20260504201602 80 306 2.0 5.0 0.00 0.00 0.00 34 1014.7
20260504201503 80 280 0.0 5.0 0.00 0.00 0.00 35 1014.7
20260504201401 80 300 0.0 5.0 0.00 0.00 0.00 35 1014.7
20260504201301 80 316 2.0 5.0 0.00 0.00 0.00 33 1014.7
20260504201201 80 345 0.0 5.0 0.00 0.00 0.00 33 1014.7
20260504201006 80 323 3.0 5.0 0.00 0.00 0.00 33 1014.7
20260504200901 80 267 3.0 3.0 0.00 0.00 0.00 35 1014.7
20260504200801 81 248 2.0 3.0 0.00 0.00 0.00 33 1014.6
20260504200700 81 329 0.0 3.0 0.00 0.00 0.00 33 1014.7
20260504200602 80 311 0.0 3.0 0.00 0.00 0.00 34 1014.7
20260504200402 80 353 0.0 3.0 0.00 0.00 0.00 34 1014.7
20260504200008 80 156 0.0 6.0 0.00 0.00 0.00 33 1014.7
20260504195902 80 315 3.0 6.0 0.00 0.00 0.00 35 1014.8
20260504195801 80 316 2.0 6.0 0.00 0.00 0.00 35 1014.7
20260504195701 81 309 2.0 6.0 0.00 0.00 0.00 35 1014.8
20260504195602 81 312 2.0 6.0 0.00 0.00 0.00 35 1014.9
20260504195402 80 156 1.0 6.0 0.00 0.00 0.00 35 1014.8
20260504195304 80 248 0.0 6.0 0.00 0.00 0.00 35 1014.8
20260504195201 80 245 0.0 5.0 0.00 0.00 0.00 33 1014.9
20260504195005 80 268 2.0 5.0 0.00 0.00 0.00 34 1014.9
20260504194902 80 338 3.0 5.0 0.00 0.00 0.00 34 1015.0
20260504194802 80 349 0.0 5.0 0.00 0.00 0.00 35 1014.9
20260504194703 80 300 5.0 5.0 0.00 0.00 0.00 36 1014.9
20260504194601 80 297 0.0 3.0 0.00 0.00 0.00 35 1015.0
20260504194505 80 318 2.0 4.0 0.00 0.00 0.00 34 1015.0
20260504194402 80 319 1.0 4.0 0.00 0.00 0.00 33 1015.1
20260504194302 81 116 3.0 4.0 0.00 0.00 0.00 32 1015.0
20260504194103 81 318 2.0 5.0 0.00 0.00 0.00 33 1015.1
20260504194006 81 309 2.0 5.0 0.00 0.00 0.00 34 1015.1
20260504193902 82 311 2.0 5.0 0.00 0.00 0.00 32 1015.0
20260504193801 81 304 1.0 5.0 0.00 0.00 0.00 34 1014.9
20260504193702 80 3 2.0 5.0 0.00 0.00 0.00 34 1015.0
20260504193602 80 317 0.0 5.0 0.00 0.00 0.00 33 1015.0
20260504193505 80 258 0.0 5.0 0.00 0.00 0.00 33 1015.0
20260504193301 80 43 0.0 5.0 0.00 0.00 0.00 34 1015.0
20260504193202 80 149 3.0 4.0 0.00 0.00 0.00 33 1015.1
20260504193102 79 232 0.0 4.0 0.00 0.00 0.00 33 1015.1
20260504193006 79 259 0.0 4.0 0.00 0.00 0.00 33 1015.1
20260504192802 79 174 2.0 5.0 0.00 0.00 0.00 34 1015.3
20260504192701 79 313 2.0 5.0 0.00 0.00 0.00 33 1015.3
20260504192602 79 189 1.0 5.0 0.00 0.00 0.00 32 1015.3
20260504192505 79 126 1.0 5.0 0.00 0.00 0.00 32 1015.3
20260504192401 79 212 0.0 5.0 0.00 0.00 0.00 34 1015.2
20260504192304 79 309 1.0 5.0 0.00 0.00 0.00 33 1015.2
20260504192103 80 338 2.0 5.0 0.00 0.00 0.00 31 1015.3
20260504192005 80 346 3.0 5.0 0.00 0.00 0.00 33 1015.3
20260504191901 80 273 3.0 5.0 0.00 0.00 0.00 34 1015.4
20260504191801 80 269 2.0 4.0 0.00 0.00 0.00 33 1015.3
20260504191702 80 275 2.0 4.0 0.00 0.00 0.00 34 1015.3
20260504191601 80 282 0.0 4.0 0.00 0.00 0.00 34 1015.4
20260504191403 79 19 0.0 4.0 0.00 0.00 0.00 35 1015.4
20260504191302 79 229 2.0 4.0 0.00 0.00 0.00 35 1015.4
20260504191102 79 273 3.0 4.0 0.00 0.00 0.00 34 1015.4
20260504190903 78 186 0.0 4.0 0.00 0.00 0.00 33 1015.5
20260504190802 78 266 2.0 4.0 0.00 0.00 0.00 34 1015.5
20260504190702 78 211 2.0 4.0 0.00 0.00 0.00 33 1015.6
20260504190601 78 248 3.0 5.0 0.00 0.00 0.00 32 1015.7
20260504190506 79 242 0.0 5.0 0.00 0.00 0.00 32 1015.7
20260504190401 79 263 3.0 5.0 0.00 0.00 0.00 32 1015.7
20260504190302 79 195 0.0 5.0 0.00 0.00 0.00 33 1015.8
20260504190202 79 156 0.0 5.0 0.00 0.00 0.00 34 1015.8
20260504190008 79 233 2.0 6.0 0.00 0.00 0.00 33 1015.7
20260504185802 80 191 0.0 6.0 0.00 0.00 0.00 35 1015.8
20260504185703 80 158 4.0 6.0 0.00 0.00 0.00 34 1015.8
20260504185603 80 181 3.0 6.0 0.00 0.00 0.00 33 1015.8
20260504185506 80 257 2.0 6.0 0.00 0.00 0.00 33 1015.8
20260504185402 80 331 3.0 6.0 0.00 0.00 0.00 33 1015.8
20260504185304 80 360 3.0 6.0 0.00 0.00 0.00 33 1015.9
20260504185201 80 119 1.0 6.0 0.00 0.00 0.00 33 1015.8
20260504185101 80 181 0.0 4.0 0.00 0.00 0.00 33 1015.8
20260504185006 81 306 3.0 7.0 0.00 0.00 0.00 33 1015.8
20260504184901 81 130 0.0 7.0 0.00 0.00 0.00 35 1015.9
20260504184803 81 160 1.0 7.0 0.00 0.00 0.00 35 1015.8
20260504184601 80 339 1.0 7.0 0.00 0.00 0.00 33 1015.9
20260504184505 80 1 3.0 7.0 0.00 0.00 0.00 33 1015.9
20260504184404 80 64 0.0 7.0 0.00 0.00 0.00 35 1015.9
20260504184301 80 338 0.0 7.0 0.00 0.00 0.00 35 1015.9
20260504184103 80 221 0.0 6.0 0.00 0.00 0.00 35 1015.9
20260504184006 80 330 2.0 6.0 0.00 0.00 0.00 33 1016.0
20260504183902 80 281 0.0 6.0 0.00 0.00 0.00 37 1016.0
20260504183802 79 304 2.0 6.0 0.00 0.00 0.00 36 1016.1
20260504183702 78 306 1.0 6.0 0.00 0.00 0.00 37 1016.0
20260504183602 79 287 2.0 6.0 0.00 0.00 0.00 34 1015.9
20260504183401 79 305 2.0 6.0 0.00 0.00 0.00 34 1016.0
20260504183203 79 306 2.0 6.0 0.00 0.00 0.00 34 1016.0
20260504183103 80 289 2.0 6.0 0.00 0.00 0.00 33 1016.0
20260504183006 80 286 3.0 6.0 0.00 0.00 0.00 31 1016.0
20260504182901 82 323 4.0 6.0 0.00 0.00 0.00 31 1016.1
20260504182801 82 319 3.0 5.0 0.00 0.00 0.00 33 1016.0
20260504182602 81 10 3.0 5.0 0.00 0.00 0.00 32 1016.1
20260504182402 81 207 0.0 5.0 0.00 0.00 0.00 33 1016.1
20260504182301 80 321 1.0 5.0 0.00 0.00 0.00 33 1016.0
20260504182201 79 313 0.0 5.0 0.00 0.00 0.00 34 1016.0
20260504182103 79 160 3.0 4.0 0.00 0.00 0.00 33 1016.0
20260504182006 80 235 2.0 4.0 0.00 0.00 0.00 35 1016.0
20260504181902 79 240 2.0 4.0 0.00 0.00 0.00 33 1016.0
20260504181802 79 321 2.0 4.0 0.00 0.00 0.00 32 1016.1
20260504181601 79 139 0.0 5.0 0.00 0.00 0.00 34 1016.1
20260504181505 79 245 2.0 5.0 0.00 0.00 0.00 36 1016.1
20260504181403 79 212 0.0 5.0 0.00 0.00 0.00 36 1016.1
20260504181302 79 239 3.0 5.0 0.00 0.00 0.00 34 1016.2
20260504181202 79 223 4.0 5.0 0.00 0.00 0.00 34 1016.1
20260504181103 79 243 0.0 5.0 0.00 0.00 0.00 35 1016.2
20260504181005 79 250 0.0 5.0 0.00 0.00 0.00 32 1016.2
20260504180902 80 176 2.0 5.0 0.00 0.00 0.00 32 1016.2
20260504180801 80 286 0.0 5.0 0.00 0.00 0.00 32 1016.2
20260504180701 80 324 1.0 5.0 0.00 0.00 0.00 33 1016.1
20260504180603 80 339 2.0 5.0 0.00 0.00 0.00 32 1016.1
20260504180403 79 359 2.0 5.0 0.00 0.00 0.00 33 1016.2
20260504180302 79 13 3.0 5.0 0.00 0.00 0.00 35 1016.3
20260504180201 78 320 2.0 5.0 0.00 0.00 0.00 33 1016.2
20260504175901 79 331 3.0 5.0 0.00 0.00 0.00 35 1016.4
20260504175801 78 356 1.0 5.0 0.00 0.00 0.00 34 1016.4
20260504175505 78 176 2.0 5.0 0.00 0.00 0.00 32 1016.3
20260504175403 78 191 3.0 7.0 0.00 0.00 0.00 33 1016.4
20260504175102 79 139 3.0 7.0 0.00 0.00 0.00 35 1016.4
20260504174902 78 149 0.0 7.0 0.00 0.00 0.00 37 1016.4
20260504174505 77 347 3.0 6.0 0.00 0.00 0.00 34 1016.3
20260504174402 77 304 5.0 6.0 0.00 0.00 0.00 34 1016.4
20260504174301 77 310 4.0 6.0 0.00 0.00 0.00 34 1016.5
20260504174104 77 288 5.0 6.0 0.00 0.00 0.00 34 1016.4
20260504174006 77 281 5.0 5.0 0.00 0.00 0.00 35 1016.5
20260504173903 77 307 3.0 4.0 0.00 0.00 0.00 33 1016.5
20260504173802 77 304 4.0 4.0 0.00 0.00 0.00 34 1016.5
20260504173702 77 318 2.0 4.0 0.00 0.00 0.00 34 1016.5
20260504173603 77 306 3.0 4.0 0.00 0.00 0.00 34 1016.6
20260504173505 77 311 3.0 4.0 0.00 0.00 0.00 34 1016.6
20260504173402 77 299 3.0 4.0 0.00 0.00 0.00 32 1016.7
20260504173301 77 51 0.0 4.0 0.00 0.00 0.00 34 1016.7
20260504173102 78 334 0.0 4.0 0.00 0.00 0.00 32 1016.7
20260504173006 78 126 3.0 4.0 0.00 0.00 0.00 33 1016.7
20260504172902 78 176 1.0 4.0 0.00 0.00 0.00 35 1016.7
20260504172802 78 186 3.0 4.0 0.00 0.00 0.00 34 1016.6
20260504172701 78 267 0.0 4.0 0.00 0.00 0.00 34 1016.5
20260504172603 79 154 1.0 4.0 0.00 0.00 0.00 33 1016.5
20260504172506 79 209 3.0 5.0 0.00 0.00 0.00 33 1016.6
20260504172401 80 256 0.0 5.0 0.00 0.00 0.00 31 1016.6
20260504172303 80 352 3.0 5.0 0.00 0.00 0.00 33 1016.7
20260504172201 80 301 2.0 5.0 0.00 0.00 0.00 31 1016.8
20260504172102 80 51 3.0 5.0 0.00 0.00 0.00 31 1016.8
20260504172005 81 158 1.0 5.0 0.00 0.00 0.00 31 1016.9
20260504171903 81 245 2.0 5.0 0.00 0.00 0.00 33 1016.9
20260504171801 80 348 2.0 5.0 0.00 0.00 0.00 32 1016.9
20260504171703 80 45 2.0 5.0 0.00 0.00 0.00 33 1016.9
20260504171602 79 34 3.0 5.0 0.00 0.00 0.00 35 1016.9
20260504171506 78 31 2.0 4.0 0.00 0.00 0.00 34 1016.9
20260504171402 78 37 2.0 5.0 0.00 0.00 0.00 34 1016.9
20260504171303 78 338 2.0 5.0 0.00 0.00 0.00 33 1016.9
20260504171202 78 333 2.0 5.0 0.00 0.00 0.00 35 1017.0
20260504171102 77 326 2.0 6.0 0.00 0.00 0.00 34 1016.9
20260504171006 77 345 3.0 6.0 0.00 0.00 0.00 34 1017.0
20260504170903 76 10 4.0 6.0 0.00 0.00 0.00 35 1016.9
20260504170703 76 312 0.0 6.0 0.00 0.00 0.00 33 1016.9
20260504170601 76 300 2.0 6.0 0.00 0.00 0.00 33 1017.0
20260504170505 76 343 2.0 6.0 0.00 0.00 0.00 33 1017.0
20260504170401 76 22 0.0 6.0 0.00 0.00 0.00 35 1017.0
20260504170203 76 324 3.0 6.0 0.00 0.00 0.00 33 1016.9
20260504160400 75 291 2.0 4.0 0.00 0.00 0.00 36 1017.6
20260504160300 75 326 2.0 4.0 0.00 0.00 0.00 35 1017.7
20260504160201 75 342 2.0 4.0 0.00 0.00 0.00 35 1017.6
20260504151100 72 314 4.0 5.0 0.00 0.00 0.00 41 1017.8
20260504151006 72 213 3.0 5.0 0.00 0.00 0.00 41 1017.8
20260504150802 72 297 3.0 5.0 0.00 0.00 0.00 41 1017.8
20260504150602 72 335 1.0 4.0 0.00 0.00 0.00 41 1017.8
20260504150401 72 307 3.0 4.0 0.00 0.00 0.00 41 1017.8
20260504150300 72 307 2.0 4.0 0.00 0.00 0.00 41 1017.8
20260504141301 71 165 1.0 3.0 0.00 0.00 0.00 40 1017.8
20260504141201 71 127 1.0 3.0 0.00 0.00 0.00 41 1017.8
20260504141100 71 326 0.0 3.0 0.00 0.00 0.00 41 1017.8
20260504140901 71 155 0.0 3.0 0.00 0.00 0.00 39 1017.8
20260504140800 71 303 0.0 3.0 0.00 0.00 0.00 40 1017.8
20260504140602 70 298 0.0 3.0 0.00 0.00 0.00 40 1017.9
20260504140505 70 271 1.0 3.0 0.00 0.00 0.00 43 1017.9
20260504140401 70 250 0.0 2.0 0.00 0.00 0.00 42 1017.8
20260504140301 70 212 0.0 2.0 0.00 0.00 0.00 42 1017.9
20260504140200 69 186 0.0 2.0 0.00 0.00 0.00 43 1017.8
20260504130800 64 139 0.0 2.0 0.00 0.00 0.00 62 1017.8
20260504130700 63 139 0.0 2.0 0.00 0.00 0.00 67 1017.8
20260504130601 63 153 0.0 2.0 0.00 0.00 0.00 68 1017.8
20260504130505 63 169 0.0 2.0 0.00 0.00 0.00 68 1017.8
20260504130400 63 218 0.0 0.0 0.00 0.00 0.00 69 1017.7
20260504130301 62 218 0.0 3.0 0.00 0.00 0.00 69 1017.7
20260504130201 62 218 0.0 3.0 0.00 0.00 0.00 70 1017.7
20260504120302 52 237 0.0 2.0 0.00 0.00 0.00 83 1017.8
20260504120201 52 252 0.0 2.0 0.00 0.00 0.00 84 1017.9
20260504110600 48 200 1.0 3.0 0.00 0.00 0.00 85 1017.3
20260504110402 48 200 0.0 3.0 0.00 0.00 0.00 85 1017.2
20260504110201 48 176 0.0 3.0 0.00 0.00 0.00 85 1017.3
20260504100601 48 222 0.0 2.0 0.00 0.00 0.00 84 1017.3
20260504100504 48 222 0.0 2.0 0.00 0.00 0.00 84 1017.3
20260504100400 48 206 1.0 2.0 0.00 0.00 0.00 84 1017.4
20260504100301 48 191 0.0 2.0 0.00 0.00 0.00 84 1017.3
20260504100200 48 197 0.0 2.0 0.00 0.00 0.00 84 1017.2
20260504082006 50 211 1.0 2.0 0.00 0.00 0.00 81 1017.8
20260504081801 50 234 0.0 2.0 0.00 0.00 0.00 81 1017.8
20260504081700 51 226 0.0 2.0 0.00 0.00 0.00 81 1017.8
20260504081602 51 209 1.0 2.0 0.00 0.00 0.00 81 1017.8
20260504081504 51 221 0.0 2.0 0.00 0.00 0.00 81 1017.8
20260504081401 51 217 0.0 2.0 0.00 0.00 0.00 81 1017.8
20260504081301 51 220 0.0 2.0 0.00 0.00 0.00 81 1017.8
20260504081201 51 227 1.0 2.0 0.00 0.00 0.00 81 1017.8
20260504080902 50 236 0.0 2.0 0.00 0.00 0.00 81 1017.8
20260504080800 51 236 0.0 2.0 0.00 0.00 0.00 81 1017.8
20260504080701 51 236 0.0 2.0 0.00 0.00 0.00 81 1017.8
20260504080600 51 218 0.0 2.0 0.00 0.00 0.00 80 1017.8
20260504080504 51 218 0.0 2.0 0.00 0.00 0.00 80 1017.8
20260504060200 53 197 0.0 2.0 0.00 0.00 0.00 77 1018.3
20260504050702 54 250 2.0 3.0 0.00 0.00 0.00 75 1018.7
20260504050505 54 250 2.0 3.0 0.00 0.00 0.00 75 1018.8
20260504050401 54 250 2.0 3.0 0.00 0.00 0.00 75 1018.8
20260504050302 54 250 2.0 3.0 0.00 0.00 0.00 75 1018.8
20260504050009 54 250 2.0 3.0 0.00 0.00 0.00 75 1018.7
20260504045902 54 237 0.0 3.0 0.00 0.00 0.00 75 1018.7
20260504045702 54 258 2.0 3.0 0.00 0.00 0.00 75 1018.6
20260504045601 54 244 2.0 3.0 0.00 0.00 0.00 75 1018.6
20260504045506 54 241 2.0 2.0 0.00 0.00 0.00 75 1018.6
20260504045404 54 235 2.0 2.0 0.00 0.00 0.00 74 1018.5
20260504045102 55 230 0.0 3.0 0.00 0.00 0.00 74 1018.7
20260504045005 55 229 0.0 3.0 0.00 0.00 0.00 74 1018.7
20260504044903 55 221 1.0 3.0 0.00 0.00 0.00 74 1018.7
20260504044803 55 225 0.0 3.0 0.00 0.00 0.00 74 1018.6
20260504044703 55 233 0.0 3.0 0.00 0.00 0.00 74 1018.7
20260504044603 55 251 0.0 3.0 0.00 0.00 0.00 74 1018.7
20260504044506 55 250 2.0 3.0 0.00 0.00 0.00 74 1018.7
20260504044402 55 267 0.0 3.0 0.00 0.00 0.00 74 1018.6
20260504044302 55 265 0.0 3.0 0.00 0.00 0.00 74 1018.6
20260504044203 55 260 2.0 3.0 0.00 0.00 0.00 74 1018.5
20260504044102 55 257 2.0 3.0 0.00 0.00 0.00 74 1018.5
20260504044005 55 255 1.0 3.0 0.00 0.00 0.00 74 1018.5
20260504043903 55 285 0.0 3.0 0.00 0.00 0.00 74 1018.4
20260504043803 55 269 0.0 3.0 0.00 0.00 0.00 74 1018.5
20260504043603 55 269 2.0 3.0 0.00 0.00 0.00 74 1018.4
20260504043506 55 267 0.0 3.0 0.00 0.00 0.00 74 1018.4
20260504043402 55 260 2.0 3.0 0.00 0.00 0.00 73 1018.4
20260504043302 55 257 3.0 3.0 0.00 0.00 0.00 73 1018.3
20260504043203 55 228 2.0 3.0 0.00 0.00 0.00 73 1018.4
20260504043102 55 240 2.0 3.0 0.00 0.00 0.00 72 1018.3
20260504043008 55 259 2.0 4.0 0.00 0.00 0.00 72 1018.4
20260504042903 55 248 2.0 4.0 0.00 0.00 0.00 72 1018.3
20260504042803 55 240 0.0 4.0 0.00 0.00 0.00 72 1018.4
20260504042702 55 257 2.0 4.0 0.00 0.00 0.00 72 1018.4
20260504042604 55 258 1.0 4.0 0.00 0.00 0.00 72 1018.5
20260504042506 55 278 2.0 4.0 0.00 0.00 0.00 72 1018.5
20260504042403 55 248 2.0 4.0 0.00 0.00 0.00 72 1018.4
20260504042304 55 264 1.0 4.0 0.00 0.00 0.00 72 1018.4
20260504042203 55 262 3.0 4.0 0.00 0.00 0.00 71 1018.4
20260504042102 55 274 3.0 3.0 0.00 0.00 0.00 71 1018.4
20260504042006 55 264 2.0 3.0 0.00 0.00 0.00 71 1018.4
20260504041902 55 274 2.0 3.0 0.00 0.00 0.00 71 1018.3
20260504041803 55 267 1.0 3.0 0.00 0.00 0.00 71 1018.3
20260504041703 55 251 2.0 3.0 0.00 0.00 0.00 71 1018.4
20260504041602 55 267 2.0 3.0 0.00 0.00 0.00 71 1018.3
20260504041505 55 250 2.0 3.0 0.00 0.00 0.00 70 1018.4
20260504041301 55 274 2.0 3.0 0.00 0.00 0.00 70 1018.3
20260504041203 56 245 2.0 3.0 0.00 0.00 0.00 70 1018.3
20260504041102 56 240 0.0 3.0 0.00 0.00 0.00 70 1018.3
20260504041006 56 234 0.0 3.0 0.00 0.00 0.00 70 1018.3
20260504040903 56 237 2.0 3.0 0.00 0.00 0.00 70 1018.2
20260504040803 56 231 0.0 3.0 0.00 0.00 0.00 69 1018.2
20260504040703 56 243 2.0 3.0 0.00 0.00 0.00 69 1018.2
20260504040603 56 229 0.0 3.0 0.00 0.00 0.00 69 1018.3
20260504040505 56 234 2.0 3.0 0.00 0.00 0.00 69 1018.3
20260504040202 56 269 3.0 3.0 0.00 0.00 0.00 69 1018.2
20260504040103 56 243 3.0 3.0 0.00 0.00 0.00 68 1018.3
20260504040007 56 246 3.0 3.0 0.00 0.00 0.00 69 1018.3
20260504035904 56 246 2.0 3.0 0.00 0.00 0.00 69 1018.3
20260504035802 56 250 0.0 2.0 0.00 0.00 0.00 69 1018.2
20260504035702 56 253 2.0 2.0 0.00 0.00 0.00 69 1018.3
20260504035602 56 262 1.0 3.0 0.00 0.00 0.00 69 1018.3
20260504035505 56 242 0.0 3.0 0.00 0.00 0.00 69 1018.3
20260504035402 56 233 0.0 3.0 0.00 0.00 0.00 69 1018.3
20260504035304 56 239 1.0 3.0 0.00 0.00 0.00 69 1018.3
20260504035203 56 232 0.0 3.0 0.00 0.00 0.00 70 1018.3
20260504035102 56 232 1.0 3.0 0.00 0.00 0.00 70 1018.3
20260504035006 56 250 1.0 3.0 0.00 0.00 0.00 70 1018.3
20260504034902 56 246 1.0 3.0 0.00 0.00 0.00 70 1018.3
20260504034703 57 235 2.0 3.0 0.00 0.00 0.00 69 1018.3
20260504034603 57 232 2.0 3.0 0.00 0.00 0.00 69 1018.4
20260504034402 57 250 1.0 3.0 0.00 0.00 0.00 69 1018.4
20260504034303 57 259 2.0 3.0 0.00 0.00 0.00 69 1018.4
20260504034202 57 262 2.0 3.0 0.00 0.00 0.00 69 1018.4
20260504034102 57 259 2.0 3.0 0.00 0.00 0.00 68 1018.3
20260504034006 57 269 1.0 3.0 0.00 0.00 0.00 68 1018.3
20260504033902 57 263 1.0 3.0 0.00 0.00 0.00 68 1018.3
20260504033802 57 255 0.0 3.0 0.00 0.00 0.00 69 1018.3
20260504033703 57 259 1.0 3.0 0.00 0.00 0.00 69 1018.2
20260504033602 57 283 0.0 3.0 0.00 0.00 0.00 69 1018.3
20260504033505 57 253 2.0 3.0 0.00 0.00 0.00 69 1018.2
20260504033402 57 252 3.0 3.0 0.00 0.00 0.00 69 1018.3
20260504033303 57 264 2.0 3.0 0.00 0.00 0.00 68 1018.3
20260504033202 57 233 2.0 3.0 0.00 0.00 0.00 68 1018.2
20260504033104 57 250 3.0 3.0 0.00 0.00 0.00 68 1018.3
20260504033006 57 248 3.0 3.0 0.00 0.00 0.00 67 1018.3
20260504032702 57 245 2.0 3.0 0.00 0.00 0.00 67 1018.3
20260504032602 57 245 0.0 3.0 0.00 0.00 0.00 67 1018.3
20260504032505 57 255 3.0 3.0 0.00 0.00 0.00 67 1018.3
20260504032403 57 257 2.0 3.0 0.00 0.00 0.00 66 1018.2
20260504032304 57 242 3.0 3.0 0.00 0.00 0.00 66 1018.3
20260504032203 57 250 2.0 3.0 0.00 0.00 0.00 66 1018.3
20260504032103 57 250 2.0 3.0 0.00 0.00 0.00 66 1018.3
20260504032005 57 245 3.0 3.0 0.00 0.00 0.00 65 1018.3
20260504031902 57 233 2.0 3.0 0.00 0.00 0.00 65 1018.4
20260504031802 57 236 3.0 3.0 0.00 0.00 0.00 65 1018.3
20260504031703 57 243 2.0 3.0 0.00 0.00 0.00 65 1018.3
20260504031602 58 230 1.0 3.0 0.00 0.00 0.00 65 1018.3
20260504031506 58 230 1.0 3.0 0.00 0.00 0.00 65 1018.3
20260504031403 58 225 2.0 3.0 0.00 0.00 0.00 65 1018.3
20260504031304 58 238 0.0 3.0 0.00 0.00 0.00 65 1018.3
20260504031204 58 237 2.0 3.0 0.00 0.00 0.00 65 1018.2
20260504031103 58 242 2.0 3.0 0.00 0.00 0.00 65 1018.3
20260504031007 58 258 2.0 3.0 0.00 0.00 0.00 65 1018.3
20260504030903 58 246 2.0 3.0 0.00 0.00 0.00 65 1018.3
20260504030803 58 245 2.0 3.0 0.00 0.00 0.00 65 1018.3
20260504030702 58 251 2.0 3.0 0.00 0.00 0.00 65 1018.2
20260504030603 58 255 3.0 3.0 0.00 0.00 0.00 65 1018.3
20260504030505 58 255 3.0 3.0 0.00 0.00 0.00 65 1018.3
20260504030403 58 255 3.0 3.0 0.00 0.00 0.00 64 1018.2
20260504030303 58 248 2.0 3.0 0.00 0.00 0.00 64 1018.2
20260504030202 58 236 0.0 3.0 0.00 0.00 0.00 64 1018.3
20260504030006 58 236 2.0 3.0 0.00 0.00 0.00 63 1018.2
20260504025901 58 255 2.0 3.0 0.00 0.00 0.00 64 1018.3
20260504025802 58 245 2.0 3.0 0.00 0.00 0.00 63 1018.3
20260504025702 58 242 2.0 3.0 0.00 0.00 0.00 63 1018.3
20260504025602 58 248 2.0 3.0 0.00 0.00 0.00 63 1018.3
20260504025505 58 241 2.0 3.0 0.00 0.00 0.00 63 1018.3
20260504025402 58 230 0.0 3.0 0.00 0.00 0.00 63 1018.3
20260504025103 58 264 2.0 4.0 0.00 0.00 0.00 63 1018.3
20260504025005 58 248 2.0 4.0 0.00 0.00 0.00 63 1018.3
20260504024901 58 242 2.0 4.0 0.00 0.00 0.00 63 1018.4
20260504024801 58 245 2.0 4.0 0.00 0.00 0.00 63 1018.4
20260504024702 58 237 2.0 4.0 0.00 0.00 0.00 62 1018.4
20260504024505 58 272 2.0 4.0 0.00 0.00 0.00 63 1018.3
20260504024402 59 250 3.0 4.0 0.00 0.00 0.00 63 1018.3
20260504024301 58 258 4.0 4.0 0.00 0.00 0.00 63 1018.3
20260504024201 58 252 3.0 4.0 0.00 0.00 0.00 63 1018.3
20260504024101 59 251 2.0 4.0 0.00 0.00 0.00 62 1018.3
20260504024006 59 250 3.0 3.0 0.00 0.00 0.00 62 1018.3
20260504023902 59 245 2.0 3.0 0.00 0.00 0.00 61 1018.2
20260504023802 59 239 0.0 3.0 0.00 0.00 0.00 61 1018.3
20260504023505 59 226 1.0 3.0 0.00 0.00 0.00 61 1018.3
20260504023401 59 220 2.0 3.0 0.00 0.00 0.00 61 1018.2
20260504023302 59 224 0.0 3.0 0.00 0.00 0.00 61 1018.2
20260504023202 59 216 0.0 3.0 0.00 0.00 0.00 60 1018.3
20260504023102 59 221 2.0 3.0 0.00 0.00 0.00 60 1018.2